Penn Yan, NY

4:55 PM EDT on May 23, 2018 (GMT -0400)
Penn Yan

Weather History for KPEO - January, 2014

Change the Weather History Date:

Tuesday, January 28, 2014

  Actual Average (KITH) Record (KITH)
Temperature  
Mean Temperature 6 °F -  
Max Temperature 12 °F 29 °F 57 °F (2002)
Min Temperature 0 °F 13 °F -17 °F (1977)
Degree Days  
Heating Degree Days 59    
Moisture  
Dew Point -10 °F    
Average Humidity 50    
Maximum Humidity 61    
Minimum Humidity 41    
Precipitation  
Precipitation 0.00 in - - ()
Sea Level Pressure  
Sea Level Pressure 30.27 in    
Wind  
Wind Speed 12 mph (SW)    
Max Wind Speed 18 mph    
Max Gust Speed 24 mph    
Visibility 10 miles    
Events      
Averages and records for this station are not official NWS values.
T = Trace of Precipitation, MM = Missing Value Source: NWS Daily Summary

Daily Weather History Graph

Daily Weather History Graph

Search for Another Location

Airport or City:

Astronomy

Jan. 28, 2014 Rise Set
Actual Time 7:26 AM EST 5:16 PM EST
Civil Twilight 6:56 AM EST 5:46 PM EST
Nautical Twilight 6:22 AM EST 6:20 PM EST
Astronomical Twilight 5:48 AM EST 6:53 PM EST
Moon 5:06 AM EST (1/28) 3:03 PM EST (1/28)
Length of Visible Light 10h 50m
Length of Day
9h 50m
Waning Crescent, 7% of the Moon is Illuminated
Jan 28
Waning Crescent
Jan 30
New
Feb 6
First Quarter
Feb 14
Full
Feb 22
Last Quarter

Hourly Weather History & Observations

Time (EST) Temp. Windchill Dew Point Humidity Pressure Visibility Wind Dir Wind Speed Gust Speed Precip Events Conditions
12:53 AM 5.0 °F -10.8 °F -6.0 °F 61% 30.17 in 10.0 mi West 11.5 mph 19.6 mph N/A   Overcast
1:53 AM 3.9 °F -13.7 °F -9.9 °F 53% 30.19 in 10.0 mi West 13.8 mph 20.7 mph N/A   Scattered Clouds
2:53 AM 3.0 °F -15.5 °F -11.9 °F 50% 30.22 in 10.0 mi West 15.0 mph 24.2 mph N/A   Clear
3:53 AM 1.9 °F -18.7 °F -11.9 °F 52% 30.24 in 10.0 mi West 18.4 mph 24.2 mph N/A   Clear
4:53 AM 1.0 °F -15.8 °F -13.0 °F 52% 30.27 in 10.0 mi WSW 11.5 mph 18.4 mph N/A   Clear
5:53 AM -0.0 °F -14.2 °F -11.0 °F 60% 30.29 in 10.0 mi SW 8.1 mph - N/A   Clear
6:53 AM -0.0 °F -18.7 °F -11.9 °F 57% 30.30 in 10.0 mi SW 13.8 mph - N/A   Clear
7:53 AM -0.9 °F -18.3 °F -13.0 °F 57% 30.32 in 10.0 mi SSW 11.5 mph - N/A   Clear
8:53 AM 1.0 °F -18.0 °F -11.9 °F 55% 30.35 in 10.0 mi SSW 15.0 mph - N/A   Clear
9:53 AM 1.9 °F -13.8 °F -11.0 °F 55% 30.35 in 10.0 mi SSW 10.4 mph - N/A   Clear
10:53 AM 3.9 °F -11.3 °F -9.9 °F 53% 30.37 in 10.0 mi SSW 10.4 mph - N/A   Clear
11:53 AM 6.1 °F -10.2 °F -9.0 °F 50% 30.35 in 10.0 mi SSW 12.7 mph - N/A   Clear
12:53 PM 8.1 °F -7.0 °F -9.0 °F 46% 30.30 in 10.0 mi SSW 11.5 mph - N/A   Clear
1:53 PM 10.0 °F -4.5 °F -8.0 °F 44% 30.28 in 10.0 mi SW 11.5 mph - N/A   Clear
2:53 PM 12.0 °F -1.3 °F -8.0 °F 41% 30.27 in 10.0 mi WSW 10.4 mph - N/A   Clear
3:53 PM 10.9 °F -1.8 °F -8.0 °F 42% 30.27 in 10.0 mi SW 9.2 mph - N/A   Clear
4:53 PM 10.0 °F -0.9 °F -9.0 °F 42% 30.27 in 10.0 mi SW 6.9 mph - N/A   Clear
5:53 PM 7.0 °F -4.5 °F -9.9 °F 46% 30.27 in 10.0 mi SW 6.9 mph - N/A   Clear
6:53 PM 7.0 °F -5.7 °F -9.9 °F 46% 30.26 in 10.0 mi SSW 8.1 mph - N/A   Clear
7:53 PM 7.0 °F -6.6 °F -8.0 °F 51% 30.26 in 10.0 mi SSW 9.2 mph - N/A   Clear
8:53 PM 7.0 °F -4.5 °F -8.0 °F 51% 30.25 in 10.0 mi SSW 6.9 mph - N/A   Clear
9:53 PM 7.0 °F -7.5 °F -9.0 °F 48% 30.22 in 10.0 mi SSW 10.4 mph - N/A   Clear
10:53 PM 6.1 °F -7.8 °F -9.9 °F 48% 30.22 in 10.0 mi SSW 9.2 mph - N/A   Clear
11:53 PM 5.0 °F -10.0 °F -9.9 °F 50% 30.21 in 10.0 mi SSW 10.4 mph - N/A   Clear